EZY8417 EGKK-LFMN

Flight info

Callsign EZY8417
Flight time N/A
Altitude 33000
Route SFD Y47 BENBO L612 HAWKE UL612 VEULE DCT KOTAP DCT KETEX DCT KOTIS DCT KUKOR DCT UTUVA DCT LERGA DCT LIQID DCT LATAM DCT TUNUR DCT NISAR
Aircraft A320/M-SDE3FGHIRWY/LB1

Departure

Time N/A
Airport London Gatwick Airport (EGKK)

Arrival

Time 2026-05-01 07:27
Airport Nice-Côte d'Azur Airport (LFMN)
Time Latitude Longitude Altitude Speed Heading
2026-05-01 07:23 43.52902 7.03581 3030 ft 190 kts 47°
2026-05-01 07:23 43.54789 7.06161 2879 ft 191 kts 47°
2026-05-01 07:24 43.55722 7.07435 2664 ft 185 kts 47°
2026-05-01 07:24 43.56626 7.08672 2423 ft 182 kts 47°
2026-05-01 07:24 43.57431 7.09776 2201 ft 180 kts 47°
2026-05-01 07:24 43.58318 7.10990 1965 ft 179 kts 46°
2026-05-01 07:25 43.59198 7.12194 1721 ft 179 kts 47°
2026-05-01 07:25 43.60072 7.13390 1466 ft 170 kts 47°
2026-05-01 07:25 43.60874 7.14489 1249 ft 155 kts 47°
2026-05-01 07:25 43.61611 7.15498 1081 ft 145 kts 48°
2026-05-01 07:26 43.62313 7.16462 960 ft 146 kts 47°
2026-05-01 07:26 43.63014 7.17426 729 ft 141 kts 49°
2026-05-01 07:26 43.63690 7.18371 488 ft 136 kts 50°
2026-05-01 07:26 43.64397 7.19324 334 ft 153 kts 49°
2026-05-01 07:27 43.65140 7.20358 103 ft 156 kts 50°
2026-05-01 07:27 43.65834 7.21309 27 ft 123 kts 48°
2026-05-01 07:27 43.66228 7.21854 22 ft 59 kts 45°
2026-05-01 07:27 43.66398 7.22080 23 ft 9 kts 46°
2026-05-01 07:28 43.66436 7.22123 23 ft 20 kts 31°
2026-05-01 07:28 43.66512 7.22088 22 ft 13 kts 319°
2026-05-01 07:28 43.66533 7.22059 22 ft 0 kts 314°
2026-05-01 07:28 43.66535 7.22056 22 ft 0 kts 314°
2026-05-01 07:30 43.66538 7.22052 22 ft 3 kts 314°
2026-05-01 07:30 43.66564 7.22015 22 ft 9 kts 314°
2026-05-01 07:30 43.66614 7.21943 22 ft 10 kts 315°
2026-05-01 07:31 43.66622 7.21832 23 ft 17 kts 238°
2026-05-01 07:31 43.66356 7.21384 22 ft 22 kts 257°
2026-05-01 07:32 43.66359 7.21284 22 ft 5 kts 313°
2026-05-01 07:32 43.66380 7.21274 22 ft 5 kts 351°
2026-05-01 07:33 43.66418 7.21284 22 ft 0 kts 11°
2026-05-01 07:33 43.66419 7.21284 22 ft 0 kts 11°